{"data":{"norad_id":66652,"intl_designator":"2025-274C","name":"2025-274C","alt_names":[],"object_type":"PAYLOAD","status":"ACTIVE","operator":null,"country":"SKOR","launch_date":"2025-11-26","launch_site_code":"NSC","launch_vehicle":null,"mission":null,"orbit_class":"UNKNOWN","rcs_meters":null,"size_class":null,"mass_kg":null,"dimensions":null,"purposes":[],"wikipedia_slug":null,"has_3d_model":false,"image_url":null,"decayed_at":null,"tle_current":{"epoch":"2026-05-25T01:40:07.760928Z","epoch_age_seconds":62939,"freshness":"FRESH","line1":"1 66652U 25274C   26145.06953427  .00001942  00000+0  19226-3 0  9997","line2":"2 66652  97.7479  74.5529 0013368  76.8900 283.3810 14.92933846 26768","mean_motion":14.92933846,"eccentricity":0.0013368,"inclination_deg":97.7479,"raan_deg":74.5529,"arg_perigee_deg":76.89,"mean_anomaly_deg":283.381,"bstar":0.00019226,"rev_number":2676,"period_min":96.454374308559,"perigee_km":579.47990208376,"apogee_km":598.10668691914,"semimajor_km":6966.9302945015,"source":"CELESTRAK","updated_at":"2026-05-25T13:38:06.379935Z"}}}